User: anonymous   Login
Location: Unspecified
(0.0000°N, 0.0000°E)
Time: 07:10:09
(UTC+00:00)
Language:

Amsat-Oscar-8 - Orbit

View from above orbital plane
View from above orbital plane
View from above satellite
View from above satellite

Ground track
Ground track

The orbit data is extracted from the following two-line orbital elements,

1 10703U 78026B   19082.84729222 -.00000270  00000-0 -15564-3 0  9995
2 10703  98.9836  39.5593 0006576 354.7702  58.2506 13.99252572 94747
Epoch (UTC): 23 March 2019 20:20:06
Eccentricity: 0.0006576
inclination: 98.9836°
perigee height: 891 km
apogee height: 901 km
right ascension of ascending node: 39.5593°
argument of perigee: 354.7702°
revolutions per day: 13.99252572
mean anomaly at epoch: 58.2506°
orbit number at epoch: 9474

The dashed part of the orbit path shows where the satellite is in the earth's shadow,  

DLR